Regional Weather Roundup
Issued by NWS

Home | Current Version | Previous Version | Text Only | Print | Product List | Glossary Off
Versions: 1 2 3 4 5 6 7 8 9 10 11 12 13 14 15 16 17 18 19 20 21 22 23 24 25 26 27 28 29 30 31 32 33 34 35 36 37 38 39 40 41 42 43 44 45 46 47 48 49 50

000
ASUS43 KDMX 282007
RWRIA

WEATHER ROUNDUP FOR IOWA
NATIONAL WEATHER SERVICE DES MOINES IA
300 PM CDT THU AUG 28 2014

NOTE: "FAIR" INDICATES FEW OR NO CLOUDS BELOW 12,000 FEET WITH NO
SIGNIFICANT WEATHER AND/OR OBSTRUCTIONS TO VISIBILITY.

* - THESE STATIONS ARE NOT NWS STATIONS...THUS NOT UNDER NWS
QUALITY CONTROL.  THEY ALSO DO NOT REPORT WEATHER SUCH
AS PRECIPITATION OR FOG.

IAZ001>003-012>014-020>022-031>034-043>046-282100-
   NORTHWEST IOWA

CITY           SKY/WX    TMP DP  RH WIND       PRES   REMARKS
CARROLL *      CLOUDY    75  72  88 SE8G15    29.92S
DENISON *      PTSUNNY   77  72  83 S7        29.89F
LE MARS *      CLOUDY    79  72  78 S9        29.88F HX  82
ORANGE CITY *  CLOUDY    73  70  88 CALM      29.90F
SHELDON *      CLOUDY    70  68  94 SE8G18    29.90F
SIOUX CITY     PTSUNNY   82  72  71 S10       29.86F HX  87
SPENCER        CLOUDY    70  67  90 E10       29.92F
STORM LAKE *   PTSUNNY   73  73 100 S10       29.92S
$$

IAZ055>058-069>071-079>083-090>094-282100-
   SOUTHWEST IOWA

CITY           SKY/WX    TMP DP  RH WIND       PRES   REMARKS
ATLANTIC *     PTSUNNY   79  72  78 S9G16     29.92S HX  82
AUDUBON *      MOSUNNY   81  73  78 S10       29.94S HX  85
CLARINDA *     PTSUNNY   82  75  78 VRB7      29.93S HX  89
COUNCIL BLFS * MOSUNNY   81  75  83 S9        29.89F HX  86
CRESTON *      PTSUNNY   79  73  83 SE12G17   29.94F HX  82
HARLAN  *      PTSUNNY   77  73  88 S10       29.95S
LAMONI         MOSUNNY   81  73  76 S13       29.92F HX  86
RED OAK *      MOSUNNY   79  73  83 S7        29.92F HX  82
SHENANDOAH *   MOSUNNY   81  73  78 VRB6      29.92S HX  85
$$

IAZ047>049-059>061-072>074-084-282100-
   CENTRAL IOWA

CITY           SKY/WX    TMP DP  RH WIND       PRES   REMARKS
AMES           PTSUNNY   76  71  85 SE10      29.94F
ANKENY *       MOSUNNY   77  72  83 SE12      29.94F
CHARITON *     PTSUNNY   77  73  88 SE10G17   29.94F
DES MOINES     CLOUDY    76  70  82 SE14      29.94F
GRINNELL*      CLOUDY    72  70  94 SE9       29.99R
KNOXVILLE *    CLOUDY    75  72  88 SE10      29.95S
MARSHALLTOWN   CLOUDY    71  68  90 SE14      29.96F
PELLA *        PTSUNNY   73  70  88 SE6       29.98S
PERRY *        CLOUDY    75  70  83 SE10      29.93F
$$

IAZ004>006-015-016-023>025-035-036-282100-
   NORTH CENTRAL IOWA

CITY           SKY/WX    TMP DP  RH WIND       PRES   REMARKS
ALGONA *       CLOUDY    68  68 100 SE9       29.94F
CLARION *      CLOUDY    72  70  94 S13       29.94F
ESTHERVILLE    LGT RAIN  68  67  96 SE12      29.94F
FORT DODGE *   CLOUDY    72  70  94 S6        29.94F
MASON CITY     CLOUDY    65  65 100 SE10      29.96F
FOREST CITY *  HVY RAIN  64  64 100 E6        29.96F
IOWA FALLS *   CLOUDY    70  66  88 SE14      29.97S
$$

IAZ007>011-017>019-026>030-037>042-050>054-066-282100-
   NORTHEAST IOWA

CITY           SKY/WX    TMP DP  RH WIND       PRES   REMARKS
CEDAR RAPIDS   CLOUDY    68  66  93 SE13      30.00R
CHARLES CITY * CLOUDY    68  66  94 E7        29.99F
CLINTON *      CLOUDY    72  64  78 E8        30.06F
DECORAH *      CLOUDY    66  64  94 SE9G15    30.01F
DUBUQUE        CLOUDY    70  64  81 SE12      30.04F
MONTICELLO *   SUNNY     70  66  88 VRB6G13   30.02F
OELWEIN *      PTSUNNY   72  66  83 SE17      29.99F
WATERLOO       CLOUDY    71  66  84 SE16      29.96S
$$

IAZ064-065-067-068-078-282100-
   EAST CENTRAL IOWA

CITY           SKY/WX    TMP DP  RH WIND       PRES   REMARKS
DAVENPORT      CLOUDY    69  65  86 NE7       30.04F
IOWA CITY      RAIN      67  67 100 SE12      30.00F FOG
MT. PLEASANT * HVY RAIN  68  66  94 NE14      29.99F VSB 1
MUSCATINE *    RAIN      68  66  94 N7G29     30.05R
QUAD CITIES    CLOUDY    71  67  87 E13       30.01F
$$

IAZ062-063-075>077-085>089-095>099-282100-
   SOUTHEAST IOWA

CITY           SKY/WX    TMP DP  RH WIND       PRES   REMARKS
BURLINGTON     PTSUNNY   83  73  72 SE10      29.96F HX  89
FAIRFIELD *    CLOUDY    68  66  94 E12       29.98F
FORT MADISON * PTSUNNY   82  73  74 SE5       29.97F HX  88
KEOKUK *       PTSUNNY   82  75  78 S7        29.95F HX  89
OSKALOOSA *      N/A     72  70  94 SE10G17   29.97S
CENTERVILLE *  LGT RAIN  72  72 100 SE5       29.96F
OTTUMWA        CLOUDY    73  69  87 SE10      29.95S
WASHINGTON *   LGT RAIN  68  68 100 E13       29.97F
$$

ABBREVIATIONS USED IN REMARKS
   TC - TEMPERATURES IN CELSIUS
  WCI - WIND CHILL INDEX
   HX - HEAT INDEX
  VSB - VISIBILITY
$$




USA.gov is the U.S. government's official web portal to all federal, state and local government web resources and services.